Stations météo

réclame
Mon MeteoGroup
Tarbes/Ossun, France (7621): Température de l'air & dewpoint: 13.07.2019 00:00:00 - 19.07.2019 00:00:00 (CEST)Tarbes/Ossun, France (7621): Température de l'air 5cm: 13.07.2019 00:00:00 - 19.07.2019 00:00:00 (CEST)Tarbes/Ossun, France (7621): Température de l'air -20cm & Température de l'air -100cm: 13.07.2019 00:00:00 - 19.07.2019 00:00:00 (CEST)Tarbes/Ossun, France (7621): Vitesse du vent & gusts: 13.07.2019 00:00:00 - 19.07.2019 00:00:00 (CEST)Tarbes/Ossun, France (7621): Direction du vent: 13.07.2019 00:00:00 - 19.07.2019 00:00:00 (CEST)Tarbes/Ossun, France (7621): reduced air pressure: 13.07.2019 00:00:00 - 19.07.2019 00:00:00 (CEST)Tarbes/Ossun, France (7621): visibility: 13.07.2019 00:00:00 - 19.07.2019 00:00:00 (CEST)Tarbes/Ossun, France (7621): Ensoleillement: 13.07.2019 00:00:00 - 19.07.2019 00:00:00 (CEST)Tarbes/Ossun, France (7621): Quantités de précipitations: 13.07.2019 00:00:00 - 19.07.2019 00:00:00 (CEST)
Date & Time tt [°C] td [°C] tt 5cm [°C] tt -20cm [°C] tt -100cm [°C] ff [km/h] ff [knt] fx [km/h] fx [knt] dd ppp [hPa] vv [km] sd [min] rr [mm]
19.07.2019 00:00:00 17,9 13,2 16,3 22,6 19,0 5 3 14 8 W 1019,3 45 0 0,0
18.07.2019 23:00:00 19,5 14,1 18,6 22,6 19,0 6 3 11 6 WNW 1018,8 45 0 0,0
18.07.2019 22:00:00 20,3 14,6 19,4 22,6 19,0 7 4 10 6 WNW 1018,2 19 0 0,0
18.07.2019 21:00:00 20,6 14,7 19,9 22,5 19,0 5 3 16 9 W 1017,9 49 7 0,0
18.07.2019 20:00:00 23,0 13,7 23,1 22,4 19,0 8 5 24 13 WNW 1017,3 56 60 0,0
18.07.2019 19:00:00 23,7 14,4 24,0 22,3 19,0 13 7 23 12 WNW 1017,0 38 33 0,0
18.07.2019 18:00:00 23,3 13,5 28,5 22,1 18,9 11 6 24 13 WNW 1017,3 45 48 0,0
18.07.2019 17:00:00 23,5 13,7 29,8 22,0 19,0 11 6 30 16 NW 1017,4 50 38 0,0
18.07.2019 16:00:00 23,7 14,4 30,4 21,8 18,9 17 9 27 15 W 1017,7 45 39 0,0
18.07.2019 15:00:00 22,2 14,1 28,0 21,7 18,9 14 8 25 14 WNW 1018,1 18 28 0,0
18.07.2019 14:00:00 21,9 13,8 27,9 21,7 18,9 10 5 30 16 NW 1018,3 52 26 0,0
18.07.2019 13:00:00 20,5 14,6 25,2 21,7 19,0 11 6 19 10 W 1018,7 35 0 0,0
18.07.2019 12:00:00 19,4 14,2 22,3 21,8 18,9 7 4 16 9 W 1019,0 48 0 0,0
18.07.2019 11:00:00 18,4 14,5 20,5 21,8 19,0 8 5 17 9 SSW 1019,0 38 0 0,0
18.07.2019 10:00:00 17,4 15,2 18,0 21,9 19,0 8 4 16 9 WSW 1019,3 33 0 0,0
18.07.2019 09:00:00 16,3 15,2 16,5 22,1 19,0 9 5 14 8 SW 1019,3 29 0 0,0
18.07.2019 08:00:00 15,9 14,4 16,3 22,1 19,0 10 5 16 9 WSW 1019,0 18 0 0,0
18.07.2019 07:00:00 15,7 15,1 16,3 22,2 18,9 8 4 14 8 SW 1019,2 15 0 0,2
18.07.2019 06:00:00 16,0 15,4 16,5 22,3 19,0 8 4 14 8 WSW 1018,9 4,7 0 0,2
18.07.2019 05:00:00 16,2 15,6 16,6 22,4 18,9 9 5 19 11 SSW 1018,8 4,8 0 0,0
18.07.2019 04:00:00 16,8 15,7 17,2 22,5 18,9 8 4 21 11 W 1018,8 7 0 0,0
18.07.2019 03:00:00 17,7 15,3 17,8 22,6 19,0 11 6 22 12 WNW 1018,7 18 0 0,0
18.07.2019 02:00:00 17,9 15,7 18,1 22,7 18,9 14 7 26 14 WNW 1018,6 17 0 0,0
18.07.2019 01:00:00 19,0 15,5 18,6 22,7 18,9 13 7 22 12 WNW 1018,4 34 0 0,0
18.07.2019 00:00:00 19,5 15,6 18,7 22,8 18,9 14 7 32 17 W 1018,2 35 0 0,0
17.07.2019 23:00:00 20,3 15,1 19,0 22,8 18,9 18 10 31 17 W 1018,2 39 0 0,0
17.07.2019 22:00:00 21,6 15,4 20,0 22,8 18,9 14 7 24 13 W 1017,2 41 5 0,0
17.07.2019 21:00:00 22,4 16,7 21,8 22,7 18,9 10 6 19 10 WNW 1016,2 37 0 0,0
17.07.2019 20:00:00 23,5 17,0 23,2 22,5 18,9 15 8 23 12 WNW 1015,5 40 17 0,0
17.07.2019 19:00:00 24,5 16,7 27,0 22,4 18,9 14 8 27 15 WNW 1015,4 26 53 0,0
17.07.2019 18:00:00 25,3 16,7 31,7 22,3 18,9 12 6 23 12 W 1015,4 38 56 0,0
17.07.2019 17:00:00 24,5 16,0 30,8 22,2 18,9 14 8 24 13 W 1015,7 11 32 0,0
17.07.2019 16:00:00 23,9 16,2 31,3 22,1 18,9 9 5 21 12 WNW 1016,1 40 27 0,0
17.07.2019 15:00:00 22,5 15,6 28,4 22,1 18,9 11 6 20 11 W 1016,4 40 0 0,0
17.07.2019 14:00:00 21,8 15,4 25,8 22,1 18,9 11 6 20 11 W 1016,6 43 0 0,0
17.07.2019 13:00:00 21,1 15,9 23,0 22,1 18,9 11 6 27 15 WSW 1017,1 39 0 0,0
17.07.2019 12:00:00 19,8 16,4 21,2 22,1 18,9 13 7 35 19 W 1017,2 35 0 0,0
17.07.2019 11:00:00 19,7 16,0 22,8 22,2 18,9 16 8 28 15 W 1017,1 36 0 0,0
17.07.2019 10:00:00 19,9 16,1 21,1 22,3 18,9 21 11 29 15 W 1016,9 34 25 0,0
17.07.2019 09:00:00 19,0 16,4 18,7 22,4 18,9 7 4 14 7 WSW 1016,7 34 0 0,0
17.07.2019 08:00:00 18,0 16,2 17,2 22,5 18,9 5 3 18 10 S 1016,3 30 1 0,0
17.07.2019 07:00:00 17,7 16,2 16,4 22,7 18,9 11 6 19 10 SW 1016,6 23 0 0,0
17.07.2019 06:00:00 17,5 15,8 16,1 22,8 18,9 11 6 23 12 WSW 1016,7 27 0 0,0
17.07.2019 05:00:00 17,3 15,6 16,1 23,0 18,9 11 6 19 10 SW 1016,9 27 0 0,0
17.07.2019 04:00:00 17,5 15,8 16,4 23,1 18,9 11 6 28 15 SW 1017,1 25 0 0,0
17.07.2019 03:00:00 18,0 16,5 15,8 23,2 18,9 15 8 28 15 WSW 1017,1 23 0 0,0
17.07.2019 02:00:00 16,8 15,1 16,0 23,3 18,9 8 4 9 5 S 1017,3 30 0 0,0
17.07.2019 01:00:00 18,6 15,3 16,6 23,4 18,9 5 3 10 6 S 1017,0 37 0 0,0
17.07.2019 00:00:00 18,5 15,4 16,4 23,5 18,9 6 4 11 6 SW 1017,3 36 0 0,0
16.07.2019 23:00:00 18,2 15,3 17,0 23,5 18,9 7 4 12 6 S 1017,1 37 0 0,0
16.07.2019 22:00:00 20,6 16,2 17,5 23,5 18,9 6 3 10 5 SW 1016,3 17 3 0,0
16.07.2019 21:00:00 23,3 14,8 21,3 23,4 18,9 6 3 16 8 NNW 1015,8 39 35 0,0
16.07.2019 20:00:00 25,3 14,4 24,3 23,2 18,9 11 6 20 11 NW 1015,4 46 60 0,0
16.07.2019 19:00:00 26,1 14,2 27,6 22,9 18,9 11 6 22 12 NW 1015,0 17 60 0,0
16.07.2019 18:00:00 26,7 14,8 31,5 22,6 18,9 11 6 21 12 WNW 1015,1 48 60 0,0
16.07.2019 17:00:00 26,3 13,8 36,2 22,4 18,9 12 7 21 11 WNW 1015,5 58 60 0,0
16.07.2019 16:00:00 26,5 14,3 37,0 22,1 18,9 7 4 23 12 NW 1015,8 40 60 0,0
16.07.2019 15:00:00 25,7 13,5 38,6 21,9 18,9 11 6 26 14 NNW 1016,1 60 60 0,0
16.07.2019 14:00:00 25,7 14,5 41,4 21,7 18,8 10 5 21 11 W 1016,4 20 60 0,0
16.07.2019 13:00:00 24,7 15,3 41,9 21,6 18,8 11 6 24 13 N 1016,6 36 60 0,0
16.07.2019 12:00:00 23,0 14,6 36,4 21,6 18,9 8 4 27 15 W 1017,1 33 60 0,0
16.07.2019 11:00:00 21,4 14,5 29,8 21,7 18,8 12 7 22 12 W 1017,5 20 60 0,0
16.07.2019 10:00:00 19,9 14,0 22,7 21,8 18,8 13 7 20 11 W 1017,7 37 60 0,0
16.07.2019 09:00:00 19,3 12,3 16,0 22,0 18,8 8 5 14 8 W 1017,6 42 60 0,0
16.07.2019 08:00:00 15,7 11,7 12,1 22,2 18,8 8 5 13 7 S 1017,8 44 55 0,0
16.07.2019 07:00:00 13,3 10,5 12,0 22,3 18,8 9 5 13 7 S 1018,0 50 0 0,0
16.07.2019 06:00:00 13,5 10,7 12,1 22,5 18,8 10 6 15 8 S 1018,0 52 0 0,0
16.07.2019 05:00:00 13,3 11,0 12,1 22,7 18,8 8 5 13 7 SSE 1018,1 54 0 0,0
16.07.2019 04:00:00 13,9 11,2 12,4 22,9 18,8 11 6 14 7 S 1018,1 55 0 0,0
16.07.2019 03:00:00 14,8 11,4 13,2 23,0 18,8 9 5 16 9 S 1018,3 52 0 0,0
16.07.2019 02:00:00 15,6 11,6 13,0 23,1 18,8 10 6 15 8 SSE 1018,3 54 0 0,0
16.07.2019 01:00:00 15,6 11,8 13,0 23,3 18,8 4 2 14 8 SSE 1018,4 54 0 0,0
16.07.2019 00:00:00 15,6 11,4 13,8 23,4 18,9 9 5 18 10 SSW 1018,4 59 0 0,0
15.07.2019 23:00:00 17,9 11,7 14,7 23,4 18,8 11 6 16 8 SSE 1017,6 59 0 0,0
15.07.2019 22:00:00 18,0 13,3 15,4 23,4 18,8 9 5 12 7 SSW 1017,1 58 14 0,0
15.07.2019 21:00:00 23,1 12,4 19,6 23,3 18,8 6 3 16 9 NW 1016,1 50 56 0,0
15.07.2019 20:00:00 24,5 10,4 22,2 23,2 18,8 13 7 21 12 NNW 1015,6 54 60 0,0
15.07.2019 19:00:00 25,4 10,0 25,5 23,0 18,8 14 7 23 13 NNW 1015,1 55 60 0,0
15.07.2019 18:00:00 25,8 9,6 30,7 22,8 18,8 11 6 31 17 WNW 1015,0 19 60 0,0
15.07.2019 17:00:00 25,9 10,1 33,3 22,5 18,8 14 8 28 15 N 1014,9 47 60 0,0
15.07.2019 16:00:00 25,6 9,8 35,4 22,3 18,8 14 7 30 16 N 1015,0 37 60 0,0
15.07.2019 15:00:00 25,5 10,1 35,7 22,1 18,8 8 4 34 19 NW 1014,9 41 60 0,0
15.07.2019 14:00:00 24,9 12,1 32,1 21,9 18,8 9 5 26 14 NW 1015,0 29 60 0,0
15.07.2019 13:00:00 23,6 12,6 33,1 21,9 18,8 14 7 22 12 NNW 1015,4 44 55 0,0
15.07.2019 12:00:00 23,4 13,3 35,5 21,9 18,8 11 6 25 14 N 1015,5 39 60 0,0
15.07.2019 11:00:00 22,0 15,8 30,5 21,9 18,8 8 5 22 12 N 1015,5 31 60 0,0
15.07.2019 10:00:00 20,7 16,3 24,7 22,0 18,8 7 4 16 9 NW 1015,7 18 55 0,0
15.07.2019 09:00:00 19,6 15,7 18,0 22,2 18,8 4 2 10 5 WSW 1015,8 33 60 0,0
15.07.2019 08:00:00 17,0 14,3 14,6 22,3 18,8 7 4 14 7 S 1016,1 31 60 0,0
15.07.2019 07:00:00 15,6 13,4 14,5 22,4 18,8 9 5 15 8 SSE 1016,2 31 2 0,0
15.07.2019 06:00:00 15,6 13,6 14,6 22,6 18,8 11 6 14 8 S 1015,9 32 0 0,0
15.07.2019 05:00:00 15,9 13,9 14,3 22,7 18,7 9 5 12 6 SSE 1015,8 31 0 0,0
15.07.2019 04:00:00 15,9 13,9 14,4 22,9 18,7 5 3 16 8 S 1015,8 31 0 0,0
15.07.2019 03:00:00 16,6 14,2 15,0 23,0 18,7 6 3 15 8 SSW 1016,0 41 0 0,0
15.07.2019 02:00:00 18,3 14,8 16,4 23,1 18,8 6 4 22 12 SW 1015,9 41 0 0,0
15.07.2019 01:00:00 19,3 15,0 16,4 23,2 18,7 14 8 24 13 WSW 1015,9 42 0 0,0
15.07.2019 00:00:00 19,4 14,2 17,0 23,3 18,7 11 6 34 18 SSW 1015,8 48 0 0,0
14.07.2019 23:00:00 20,7 14,8 18,4 23,4 18,7 20 11 34 19 WSW 1015,5 44 0 0,0
14.07.2019 22:00:00 21,7 15,1 19,6 23,3 18,7 19 11 32 18 WSW 1014,8 37 14 0,0
14.07.2019 21:00:00 22,8 15,4 21,2 23,3 18,7 16 8 28 15 W 1014,4 37 38 0,0
14.07.2019 20:00:00 23,2 16,5 21,6 23,2 18,7 13 7 26 14 WSW 1014,0 38 37 0,0
14.07.2019 19:00:00 25,6 13,1 26,1 23,1 18,7 15 8 31 17 WNW 1013,4 55 44 0,0
14.07.2019 18:00:00 25,9 15,0 27,3 23,0 18,7 17 9 38 20 NW 1013,3 35 35 0,0
14.07.2019 17:00:00 25,6 13,8 31,0 22,8 18,7 19 10 33 18 NW 1013,3 46 48 0,0
14.07.2019 16:00:00 25,3 15,6 33,3 22,7 18,7 18 10 35 19 NW 1013,4 48 48 0,0
14.07.2019 15:00:00 25,6 16,2 28,8 22,6 18,7 18 10 31 17 W 1013,3 36 22 0,0
14.07.2019 14:00:00 23,6 16,1 29,1 22,5 18,7 18 10 31 17 WNW 1013,7 43 28 0,0
14.07.2019 13:00:00 24,2 16,5 29,1 22,4 18,7 13 7 28 15 W 1013,6 27 30 0,0
14.07.2019 12:00:00 23,1 17,3 29,6 22,4 18,7 16 9 29 16 W 1014,0 26 30 0,0
14.07.2019 11:00:00 22,3 18,5 27,2 22,5 18,7 13 7 34 18 W 1013,9 20 28 0,0
14.07.2019 10:00:00 21,4 18,2 23,5 22,5 18,7 13 7 21 11 W 1013,9 30 31 0,0
14.07.2019 09:00:00 20,6 18,0 19,9 22,6 18,7 15 8 24 13 WSW 1014,0 30 16 0,0
14.07.2019 08:00:00 19,5 17,8 19,5 22,7 18,7 9 5 21 11 WSW 1014,1 17 14 0,0
14.07.2019 07:00:00 19,2 17,9 18,4 22,9 18,7 7 4 16 9 W 1014,3 16 0 0,0
14.07.2019 06:00:00 19,3 18,0 18,4 22,9 18,6 10 5 22 12 W 1014,2 16 0 0,0
14.07.2019 05:00:00 19,5 18,0 18,7 23,0 18,7 12 6 24 13 WSW 1014,8 18 0 0,0
14.07.2019 04:00:00 20,2 18,3 19,7 23,1 18,7 14 7 28 15 W 1015,1 21 0 0,2
14.07.2019 03:00:00 21,4 18,6 - - - 15 8 31 17 WSW 1015,1 35 - 0,0
14.07.2019 02:00:00 22,5 18,1 20,5 23,3 18,7 18 10 29 15 W 1015,4 57 0 0,0
14.07.2019 01:00:00 22,7 18,0 20,8 23,3 18,6 9 5 14 8 WSW 1015,4 60 0 0,0
14.07.2019 00:00:00 22,7 18,5 - - - 8 4 11 6 SW 1014,7 55 - 0,0
13.07.2019 23:00:00 22,8 18,6 21,4 23,3 18,6 4 2 13 7 NNW 1014,2 59 0 0,0
13.07.2019 22:00:00 23,6 18,3 21,6 23,3 18,6 7 4 15 8 NNE 1013,4 58 15 0,0
13.07.2019 21:00:00 24,9 17,9 23,3 23,3 18,6 7 4 22 12 ENE 1013,2 58 60 0,0
13.07.2019 20:00:00 25,1 18,1 24,5 23,2 18,6 11 6 19 10 NNE 1013,4 50 15 0,0
13.07.2019 19:00:00 25,4 17,6 26,4 23,0 18,6 13 7 20 11 N 1014,2 46 22 0,0
13.07.2019 18:00:00 26,2 18,8 27,9 22,8 18,6 12 6 23 13 N 1014,8 35 24 0,0
13.07.2019 17:00:00 26,6 19,0 30,1 22,6 18,6 11 6 23 13 N 1015,1 20 36 0,0
13.07.2019 16:00:00 26,2 19,1 32,3 22,4 18,6 12 6 23 12 N 1015,8 41 31 0,0
13.07.2019 15:00:00 26,5 18,1 31,8 22,2 18,6 11 6 29 16 ENE 1015,7 32 47 0,0
13.07.2019 14:00:00 25,5 18,7 33,4 22,1 18,6 10 6 26 14 NNE 1016,7 21 50 0,0
13.07.2019 13:00:00 24,1 17,8 31,6 22,0 18,6 7 4 26 14 NNE 1017,6 19 42 0,0
13.07.2019 12:00:00 22,9 16,9 36,0 22,0 18,6 9 5 18 10 N 1018,2 38 58 0,0
13.07.2019 11:00:00 21,9 16,0 23,9 22,1 18,6 5 3 13 7 WNW 1018,4 19 48 0,0
13.07.2019 10:00:00 19,1 15,8 20,6 22,2 18,6 8 4 13 7 SSW 1018,7 27 0 0,0
13.07.2019 09:00:00 17,7 15,5 19,0 22,3 18,6 7 4 12 6 W 1019,3 15 23 0,0
13.07.2019 08:00:00 17,2 15,5 17,0 22,4 18,6 7 4 14 7 WNW 1019,0 24 8 0,0
13.07.2019 07:00:00 16,7 14,7 15,1 22,6 18,6 5 3 11 6 SW 1018,9 43 4 0,0
13.07.2019 06:00:00 15,8 14,3 15,2 22,8 18,6 6 3 10 5 S 1019,2 37 0 0,0
13.07.2019 05:00:00 16,5 14,9 15,2 22,9 18,6 7 4 9 5 SSE 1019,2 35 0 0,0
13.07.2019 04:00:00 16,8 14,8 15,6 23,1 18,6 6 3 10 6 S 1019,3 40 0 0,0
13.07.2019 03:00:00 17,7 15,3 16,0 23,2 18,6 6 3 10 6 S 1019,5 54 0 0,0
13.07.2019 02:00:00 17,3 15,3 15,8 23,3 18,6 7 4 12 6 S 1020,0 48 0 0,0
13.07.2019 01:00:00 17,5 15,1 15,9 23,5 18,6 7 4 9 5 S 1020,0 40 0 0,0
13.07.2019 00:00:00 18,7 15,6 16,9 23,5 18,5 6 3 11 6 S 1019,3 57 0 0,0

tt = Température de l'air
td = dewpoint
tt 5cm = Température de l'air 5cm
tt -20cm = Température de l'air -20cm
tt -100cm = Température de l'air -100cm
ff = Vitesse du vent
fx = gusts
dd = Direction du vent
ppp = reduced air pressure
vv = visibility
sd = Ensoleillement
rr = Quantités de précipitations

stations d'obs. à proximité